Погода в Старомунасиповом

Россия / Республика Башкортостан     53°13′44″N   57°34′37″E
темп.,
°C
ветер,
м/с
пор.,
м/с
влажн.,
%
обл.,
%
осадки,
мм/ч
давл.,
гПа
погр.,
м
21 июня, пн
пн2123:00+15ссз311530 0.0 1019502
02:00+10ссз22830 0.0 102014
05:00+9сз21810 0.0 102216
08:00+16ссз29465 0.0 1022562
11:00+20с58335 0.0 10221228
14:00+23с48335 0.0 10211746
17:00+24ссз46354 0.0 10211660
20:00+20сз26615 0.0 1021182
22 июня, вт
вт2223:00+13зсз1178100 0.0 102311
02:00+12сз11900 0.5 102210
05:00+11зюз11935 0.6 102310
08:00+17зюз12865 0.0 1022186
11:00+24сз46545 0.0 10211577
14:00+28ссз463821 0.0 10202572
17:00+27ссз5641100 0.0 10202515
20:00+20сз498439 0.6 1020294
23 июня, ср
ср2323:00+17з2195100 1.9 102117
02:00+15з119514 0.0 102011
05:00+16зюз1195100 0.6 102013
08:00+20з12870 0.0 1019173
11:00+23сз35781 2.3 10191029
14:00+27ссз474428 0.1 10171983
17:00+22ссз4875100 1.4 1018593
20:00+19с019374 2.8 101844
24 июня, чт
чт2423:00+16вюв239980 4.5 1018137
02:00+15в2499100 0.3 1019252
05:00+13в1599100 0.7 1020293
08:00+13вюв139797 0.4 1020251
11:00+15юв128785 0.4 1021470
14:00+21зюз226391 0.0 10191103
17:00+22с235430 0.1 10191401
20:00+20зсз237481 0.0 101876
25 июня, пт
пт2523:00+15з11925 0.0 101811
02:00+13з11955 0.0 101811
05:00+12ююз11965 0.0 101710
08:00+19зюз12755 0.0 1016257
11:00+25зсз46541 0.0 10141592
14:00+28зсз44415 0.0 10132298
17:00+28зсз454394 0.0 10122446
20:00+21сз388835 0.8 1012305